Location: Asheville, NC
(35.6000°N, 82.5500°W)
Time: 13:57:01
(UTC-04:00)

Envisat - Pass Details

Date: 17 March 2018
Orbit: 764 x 766 km, 98.2° (Epoch: 19 June)

Event Time Altitude Azimuth Distance (km) Brightness Sun altitude
Rises 20:01:52 0° 134° (SE) 3,214 5.8 -5.4°
Reaches altitude 10° 20:04:33 10° 120° (ESE) 2,292 4.9 -5.9°
Maximum altitude 20:08:32 24° 68° (ENE) 1,544 4.1 -6.7°
Drops below altitude 10° 20:12:32 10° 16° (NNE) 2,304 5.4 -7.5°
Sets 20:15:12 0° 3° (N) 3,234 6.3 -8.1°
